Location: Unspecified
(0.0000°N, 0.0000°E)
Time: 00:28:50
(UTC+01:00)

Orbus 21S - Visible Passes

Search period start: 24 February 2017 00:00
Search period end: 06 March 2017 00:00
Orbit: 260 x 33110 km, 24.0° (Epoch: 22 February)

Date Brightness Start Highest point End Pass type
(mag) Time Alt. Az. Time Alt. Az. Time Alt. Az.
24 Feb 6.8 05:37:44 22° WNW 07:55:51 54° NW 14:26:54 10° SE visible
25 Feb 8.3 00:59:48 37° NE 00:59:48 37° NE 09:28:12 10° E visible
26 Feb 6.6 06:02:52 14° WNW 08:14:21 49° NW 14:52:34 10° SE visible
27 Feb 8.2 01:24:52 44° NE 01:24:52 44° NE 09:56:54 10° ESE visible
28 Feb 6.5 06:30:18 10° WNW 08:36:11 42° NW 15:17:57 10° SSE visible
01 Mar 8.1 01:49:44 51° NNE 01:49:44 51° NNE 10:24:37 10° ESE visible
03 Mar 8.0 02:14:24 55° NNE 02:14:24 55° NNE 10:51:37 10° ESE visible
05 Mar 8.0 02:38:53 56° N 02:39:33 56° N 11:18:02 10° ESE visible
